owner,sensor,date,latitude,longitude,relative_humidity,qcFlag 
COMPS,ioos:station:USF.COMPS:SHP:1,2015-07-01T03:00:00Z,30.0600,-84.2910,83.34,1111122 
COMPS,ioos:station:USF.COMPS:SHP:1,2015-07-01T03:06:00Z,30.0600,-84.2910,83.97,1111122 
COMPS,ioos:station:USF.COMPS:SHP:1,2015-07-01T03:12:00Z,30.0600,-84.2910,84.67,1111122 
COMPS,ioos:station:USF.COMPS:SHP:1,2015-07-01T03:18:00Z,30.0600,-84.2910,85.06,1111122 
COMPS,ioos:station:USF.COMPS:SHP:1,2015-07-01T03:24:00Z,30.0600,-84.2910,84.39,1111122 
COMPS,ioos:station:USF.COMPS:SHP:1,2015-07-01T03:30:00Z,30.0600,-84.2910,84.17,1111122 
COMPS,ioos:station:USF.COMPS:SHP:1,2015-07-01T03:36:00Z,30.0600,-84.2910,85.58,1111122 
COMPS,ioos:station:USF.COMPS:SHP:1,2015-07-01T03:42:00Z,30.0600,-84.2910,85.92,1111122 
COMPS,ioos:station:USF.COMPS:SHP:1,2015-07-01T03:48:00Z,30.0600,-84.2910,86.2,1111122 
COMPS,ioos:station:USF.COMPS:SHP:1,2015-07-01T03:54:00Z,30.0600,-84.2910,86.33,1111122 
COMPS,ioos:station:USF.COMPS:SHP:1,2015-07-01T04:00:00Z,30.0600,-84.2910,86.06,1111122 
COMPS,ioos:station:USF.COMPS:SHP:1,2015-07-01T04:06:00Z,30.0600,-84.2910,86.05,1111122 
COMPS,ioos:station:USF.COMPS:SHP:1,2015-07-01T04:12:00Z,30.0600,-84.2910,86.64,1111122 
COMPS,ioos:station:USF.COMPS:SHP:1,2015-07-01T04:18:00Z,30.0600,-84.2910,87.73,1111122 
COMPS,ioos:station:USF.COMPS:SHP:1,2015-07-01T04:24:00Z,30.0600,-84.2910,89.06,1111122 
COMPS,ioos:station:USF.COMPS:SHP:1,2015-07-01T04:30:00Z,30.0600,-84.2910,89.7,1111122 
COMPS,ioos:station:USF.COMPS:SHP:1,2015-07-01T04:36:00Z,30.0600,-84.2910,90.01,1111122 
COMPS,ioos:station:USF.COMPS:SHP:1,2015-07-01T04:42:00Z,30.0600,-84.2910,90.38,1111122 
COMPS,ioos:station:USF.COMPS:SHP:1,2015-07-01T04:48:00Z,30.0600,-84.2910,90.53,1111122 
COMPS,ioos:station:USF.COMPS:SHP:1,2015-07-01T04:54:00Z,30.0600,-84.2910,90.9,1111122 
COMPS,ioos:station:USF.COMPS:SHP:1,2015-07-01T05:00:00Z,30.0600,-84.2910,91.29,1111122 
COMPS,ioos:station:USF.COMPS:SHP:1,2015-07-01T05:06:00Z,30.0600,-84.2910,91.16,1111122 
COMPS,ioos:station:USF.COMPS:SHP:1,2015-07-01T05:12:00Z,30.0600,-84.2910,91.19,1111122 
COMPS,ioos:station:USF.COMPS:SHP:1,2015-07-01T05:18:00Z,30.0600,-84.2910,91.45,1111122 
COMPS,ioos:station:USF.COMPS:SHP:1,2015-07-01T05:24:00Z,30.0600,-84.2910,91.22,1111122 
COMPS,ioos:station:USF.COMPS:SHP:1,2015-07-01T05:30:00Z,30.0600,-84.2910,91.09,1111122 
COMPS,ioos:station:USF.COMPS:SHP:1,2015-07-01T05:36:00Z,30.0600,-84.2910,91.3,1111122 
COMPS,ioos:station:USF.COMPS:SHP:1,2015-07-01T05:42:00Z,30.0600,-84.2910,91.3,1111122 
COMPS,ioos:station:USF.COMPS:SHP:1,2015-07-01T05:48:00Z,30.0600,-84.2910,90.32,1111122 
COMPS,ioos:station:USF.COMPS:SHP:1,2015-07-01T05:54:00Z,30.0600,-84.2910,89.63,1111122 
COMPS,ioos:station:USF.COMPS:SHP:1,2015-07-01T06:00:00Z,30.0600,-84.2910,88.47,1111122 
COMPS,ioos:station:USF.COMPS:SHP:1,2015-07-01T06:06:00Z,30.0600,-84.2910,87.83,1111122 
COMPS,ioos:station:USF.COMPS:SHP:1,2015-07-01T06:12:00Z,30.0600,-84.2910,86.22,1111122 
COMPS,ioos:station:USF.COMPS:SHP:1,2015-07-01T06:18:00Z,30.0600,-84.2910,85.96,1111122 
COMPS,ioos:station:USF.COMPS:SHP:1,2015-07-01T06:24:00Z,30.0600,-84.2910,85.25,1111122 
COMPS,ioos:station:USF.COMPS:SHP:1,2015-07-01T06:30:00Z,30.0600,-84.2910,84.26,1111122 
COMPS,ioos:station:USF.COMPS:SHP:1,2015-07-01T06:36:00Z,30.0600,-84.2910,82.87,1111122 
COMPS,ioos:station:USF.COMPS:SHP:1,2015-07-01T06:42:00Z,30.0600,-84.2910,81.95,1111122 
COMPS,ioos:station:USF.COMPS:SHP:1,2015-07-01T06:48:00Z,30.0600,-84.2910,82.15,1111122 
COMPS,ioos:station:USF.COMPS:SHP:1,2015-07-01T06:54:00Z,30.0600,-84.2910,82.71,1111122 
COMPS,ioos:station:USF.COMPS:SHP:1,2015-07-01T07:00:00Z,30.0600,-84.2910,83.26,1111122 
COMPS,ioos:station:USF.COMPS:SHP:1,2015-07-01T07:06:00Z,30.0600,-84.2910,82.84,1111122 
COMPS,ioos:station:USF.COMPS:SHP:1,2015-07-01T07:12:00Z,30.0600,-84.2910,82.83,1111122 
COMPS,ioos:station:USF.COMPS:SHP:1,2015-07-01T07:18:00Z,30.0600,-84.2910,81.95,1111122 
COMPS,ioos:station:USF.COMPS:SHP:1,2015-07-01T07:24:00Z,30.0600,-84.2910,82.41,1111122 
COMPS,ioos:station:USF.COMPS:SHP:1,2015-07-01T07:30:00Z,30.0600,-84.2910,83.27,1111122 
COMPS,ioos:station:USF.COMPS:SHP:1,2015-07-01T07:36:00Z,30.0600,-84.2910,83.63,1111122 
COMPS,ioos:station:USF.COMPS:SHP:1,2015-07-01T07:42:00Z,30.0600,-84.2910,83.86,1111122 
COMPS,ioos:station:USF.COMPS:SHP:1,2015-07-01T07:48:00Z,30.0600,-84.2910,84.15,1111122 
COMPS,ioos:station:USF.COMPS:SHP:1,2015-07-01T07:54:00Z,30.0600,-84.2910,84.0,1111122 
COMPS,ioos:station:USF.COMPS:SHP:1,2015-07-01T08:00:00Z,30.0600,-84.2910,84.44,1111122 
COMPS,ioos:station:USF.COMPS:SHP:1,2015-07-01T08:06:00Z,30.0600,-84.2910,84.37,1111122 
COMPS,ioos:station:USF.COMPS:SHP:1,2015-07-01T08:12:00Z,30.0600,-84.2910,84.34,1111122 
COMPS,ioos:station:USF.COMPS:SHP:1,2015-07-01T08:18:00Z,30.0600,-84.2910,84.45,1111122 
COMPS,ioos:station:USF.COMPS:SHP:1,2015-07-01T08:24:00Z,30.0600,-84.2910,84.87,1111122 
COMPS,ioos:station:USF.COMPS:SHP:1,2015-07-01T08:30:00Z,30.0600,-84.2910,84.88,1111122 
COMPS,ioos:station:USF.COMPS:SHP:1,2015-07-01T08:36:00Z,30.0600,-84.2910,85.25,1111122 
COMPS,ioos:station:USF.COMPS:SHP:1,2015-07-01T08:42:00Z,30.0600,-84.2910,85.35,1111122 
COMPS,ioos:station:USF.COMPS:SHP:1,2015-07-01T08:48:00Z,30.0600,-84.2910,85.98,1111122 
COMPS,ioos:station:USF.COMPS:SHP:1,2015-07-01T08:54:00Z,30.0600,-84.2910,85.91,1111122 
COMPS,ioos:station:USF.COMPS:SHP:1,2015-07-01T09:00:00Z,30.0600,-84.2910,86.18,1111122 
COMPS,ioos:station:USF.COMPS:SHP:1,2015-07-01T09:06:00Z,30.0600,-84.2910,86.38,1111122 
COMPS,ioos:station:USF.COMPS:SHP:1,2015-07-01T09:12:00Z,30.0600,-84.2910,86.44,1111122 
COMPS,ioos:station:USF.COMPS:SHP:1,2015-07-01T09:18:00Z,30.0600,-84.2910,85.99,1111122 
COMPS,ioos:station:USF.COMPS:SHP:1,2015-07-01T09:24:00Z,30.0600,-84.2910,85.97,1111122 
COMPS,ioos:station:USF.COMPS:SHP:1,2015-07-01T09:30:00Z,30.0600,-84.2910,85.92,1111122 
COMPS,ioos:station:USF.COMPS:SHP:1,2015-07-01T09:36:00Z,30.0600,-84.2910,85.85,1111122 
COMPS,ioos:station:USF.COMPS:SHP:1,2015-07-01T09:42:00Z,30.0600,-84.2910,86.06,1111122 
COMPS,ioos:station:USF.COMPS:SHP:1,2015-07-01T09:48:00Z,30.0600,-84.2910,86.19,1111122 
COMPS,ioos:station:USF.COMPS:SHP:1,2015-07-01T09:54:00Z,30.0600,-84.2910,85.69,1111122 
COMPS,ioos:station:USF.COMPS:SHP:1,2015-07-01T10:00:00Z,30.0600,-84.2910,85.72,1111122 
COMPS,ioos:station:USF.COMPS:SHP:1,2015-07-01T10:06:00Z,30.0600,-84.2910,85.44,1111122 
COMPS,ioos:station:USF.COMPS:SHP:1,2015-07-01T10:12:00Z,30.0600,-84.2910,85.28,1111122 
COMPS,ioos:station:USF.COMPS:SHP:1,2015-07-01T10:18:00Z,30.0600,-84.2910,85.38,1111122 
COMPS,ioos:station:USF.COMPS:SHP:1,2015-07-01T10:24:00Z,30.0600,-84.2910,85.63,1111122 
COMPS,ioos:station:USF.COMPS:SHP:1,2015-07-01T10:30:00Z,30.0600,-84.2910,86.37,1111122 
COMPS,ioos:station:USF.COMPS:SHP:1,2015-07-01T10:36:00Z,30.0600,-84.2910,86.62,1111122 
COMPS,ioos:station:USF.COMPS:SHP:1,2015-07-01T10:42:00Z,30.0600,-84.2910,86.71,1111122 
COMPS,ioos:station:USF.COMPS:SHP:1,2015-07-01T10:48:00Z,30.0600,-84.2910,86.97,1111122 
COMPS,ioos:station:USF.COMPS:SHP:1,2015-07-01T10:54:00Z,30.0600,-84.2910,87.44,1111122 
COMPS,ioos:station:USF.COMPS:SHP:1,2015-07-01T11:00:00Z,30.0600,-84.2910,87.53,1111122 
COMPS,ioos:station:USF.COMPS:SHP:1,2015-07-01T11:06:00Z,30.0600,-84.2910,87.55,1111122 
COMPS,ioos:station:USF.COMPS:SHP:1,2015-07-01T11:12:00Z,30.0600,-84.2910,87.53,1111122 
COMPS,ioos:station:USF.COMPS:SHP:1,2015-07-01T11:18:00Z,30.0600,-84.2910,87.33,1111122 
COMPS,ioos:station:USF.COMPS:SHP:1,2015-07-01T11:24:00Z,30.0600,-84.2910,87.31,1111122 
COMPS,ioos:station:USF.COMPS:SHP:1,2015-07-01T11:30:00Z,30.0600,-84.2910,87.14,1111122 
COMPS,ioos:station:USF.COMPS:SHP:1,2015-07-01T11:36:00Z,30.0600,-84.2910,86.69,1111122 
COMPS,ioos:station:USF.COMPS:SHP:1,2015-07-01T11:42:00Z,30.0600,-84.2910,86.37,1111122 
COMPS,ioos:station:USF.COMPS:SHP:1,2015-07-01T11:48:00Z,30.0600,-84.2910,85.75,1111122 
COMPS,ioos:station:USF.COMPS:SHP:1,2015-07-01T11:54:00Z,30.0600,-84.2910,84.99,1111122 
COMPS,ioos:station:USF.COMPS:SHP:1,2015-07-01T12:00:00Z,30.0600,-84.2910,84.87,1111122 
COMPS,ioos:station:USF.COMPS:SHP:1,2015-07-01T12:06:00Z,30.0600,-84.2910,84.96,1111122 
COMPS,ioos:station:USF.COMPS:SHP:1,2015-07-01T12:12:00Z,30.0600,-84.2910,84.29,1111122 
COMPS,ioos:station:USF.COMPS:SHP:1,2015-07-01T12:18:00Z,30.0600,-84.2910,84.22,1111122 
COMPS,ioos:station:USF.COMPS:SHP:1,2015-07-01T12:24:00Z,30.0600,-84.2910,83.56,1111122 
COMPS,ioos:station:USF.COMPS:SHP:1,2015-07-01T12:30:00Z,30.0600,-84.2910,82.78,1111122 
COMPS,ioos:station:USF.COMPS:SHP:1,2015-07-01T12:36:00Z,30.0600,-84.2910,82.4,1111122 
COMPS,ioos:station:USF.COMPS:SHP:1,2015-07-01T12:42:00Z,30.0600,-84.2910,82.35,1111122 
COMPS,ioos:station:USF.COMPS:SHP:1,2015-07-01T12:48:00Z,30.0600,-84.2910,82.59,1111122 
COMPS,ioos:station:USF.COMPS:SHP:1,2015-07-01T12:54:00Z,30.0600,-84.2910,82.37,1111122 
COMPS,ioos:station:USF.COMPS:SHP:1,2015-07-01T13:00:00Z,30.0600,-84.2910,82.59,1111122 
COMPS,ioos:station:USF.COMPS:SHP:1,2015-07-01T13:06:00Z,30.0600,-84.2910,82.44,1111122 
COMPS,ioos:station:USF.COMPS:SHP:1,2015-07-01T13:12:00Z,30.0600,-84.2910,83.86,1111122 
COMPS,ioos:station:USF.COMPS:SHP:1,2015-07-01T13:18:00Z,30.0600,-84.2910,84.44,1111122 
COMPS,ioos:station:USF.COMPS:SHP:1,2015-07-01T13:24:00Z,30.0600,-84.2910,84.4,1111122 
COMPS,ioos:station:USF.COMPS:SHP:1,2015-07-01T13:30:00Z,30.0600,-84.2910,84.89,1111122 
COMPS,ioos:station:USF.COMPS:SHP:1,2015-07-01T13:36:00Z,30.0600,-84.2910,84.78,1111122 
COMPS,ioos:station:USF.COMPS:SHP:1,2015-07-01T13:42:00Z,30.0600,-84.2910,84.32,1111122 
COMPS,ioos:station:USF.COMPS:SHP:1,2015-07-01T13:48:00Z,30.0600,-84.2910,85.93,1111122 
COMPS,ioos:station:USF.COMPS:SHP:1,2015-07-01T13:54:00Z,30.0600,-84.2910,88.04,1111122 
COMPS,ioos:station:USF.COMPS:SHP:1,2015-07-01T14:00:00Z,30.0600,-84.2910,87.4,1111122 
COMPS,ioos:station:USF.COMPS:SHP:1,2015-07-01T14:06:00Z,30.0600,-84.2910,84.55,1111122 
COMPS,ioos:station:USF.COMPS:SHP:1,2015-07-01T14:12:00Z,30.0600,-84.2910,83.1,1111122 
COMPS,ioos:station:USF.COMPS:SHP:1,2015-07-01T14:18:00Z,30.0600,-84.2910,81.86,1111122 
COMPS,ioos:station:USF.COMPS:SHP:1,2015-07-01T14:24:00Z,30.0600,-84.2910,81.84,1111122 
COMPS,ioos:station:USF.COMPS:SHP:1,2015-07-01T14:30:00Z,30.0600,-84.2910,81.62,1111122 
COMPS,ioos:station:USF.COMPS:SHP:1,2015-07-01T14:36:00Z,30.0600,-84.2910,79.16,1111122 
COMPS,ioos:station:USF.COMPS:SHP:1,2015-07-01T14:42:00Z,30.0600,-84.2910,78.03,1111122 
COMPS,ioos:station:USF.COMPS:SHP:1,2015-07-01T14:48:00Z,30.0600,-84.2910,78.92,1111122 
COMPS,ioos:station:USF.COMPS:SHP:1,2015-07-01T14:54:00Z,30.0600,-84.2910,79.84,1111122 
COMPS,ioos:station:USF.COMPS:SHP:1,2015-07-01T15:00:00Z,30.0600,-84.2910,79.92,1111122 
COMPS,ioos:station:USF.COMPS:SHP:1,2015-07-01T15:06:00Z,30.0600,-84.2910,80.35,1111122 
COMPS,ioos:station:USF.COMPS:SHP:1,2015-07-01T15:12:00Z,30.0600,-84.2910,79.99,1111122 
COMPS,ioos:station:USF.COMPS:SHP:1,2015-07-01T15:18:00Z,30.0600,-84.2910,79.17,1111122 
COMPS,ioos:station:USF.COMPS:SHP:1,2015-07-01T15:24:00Z,30.0600,-84.2910,79.29,1111122 
COMPS,ioos:station:USF.COMPS:SHP:1,2015-07-01T15:30:00Z,30.0600,-84.2910,79.32,1111122 
COMPS,ioos:station:USF.COMPS:SHP:1,2015-07-01T15:36:00Z,30.0600,-84.2910,79.81,1111122 
COMPS,ioos:station:USF.COMPS:SHP:1,2015-07-01T15:42:00Z,30.0600,-84.2910,78.86,1111122 
COMPS,ioos:station:USF.COMPS:SHP:1,2015-07-01T15:48:00Z,30.0600,-84.2910,78.97,1111122 
COMPS,ioos:station:USF.COMPS:SHP:1,2015-07-01T15:54:00Z,30.0600,-84.2910,77.82,1111122 
COMPS,ioos:station:USF.COMPS:SHP:1,2015-07-01T16:00:00Z,30.0600,-84.2910,76.98,1111122 
COMPS,ioos:station:USF.COMPS:SHP:1,2015-07-01T16:06:00Z,30.0600,-84.2910,76.39,1111122 
COMPS,ioos:station:USF.COMPS:SHP:1,2015-07-01T16:12:00Z,30.0600,-84.2910,74.62,1111122 
COMPS,ioos:station:USF.COMPS:SHP:1,2015-07-01T16:18:00Z,30.0600,-84.2910,73.32,1111122 
COMPS,ioos:station:USF.COMPS:SHP:1,2015-07-01T16:24:00Z,30.0600,-84.2910,68.43,1111122 
COMPS,ioos:station:USF.COMPS:SHP:1,2015-07-01T16:30:00Z,30.0600,-84.2910,67.44,1111122 
COMPS,ioos:station:USF.COMPS:SHP:1,2015-07-01T16:36:00Z,30.0600,-84.2910,68.07,1111122 
COMPS,ioos:station:USF.COMPS:SHP:1,2015-07-01T16:42:00Z,30.0600,-84.2910,67.6,1111122 
COMPS,ioos:station:USF.COMPS:SHP:1,2015-07-01T16:48:00Z,30.0600,-84.2910,65.66,1111122 
COMPS,ioos:station:USF.COMPS:SHP:1,2015-07-01T16:54:00Z,30.0600,-84.2910,62.86,1111122 
COMPS,ioos:station:USF.COMPS:SHP:1,2015-07-01T17:00:00Z,30.0600,-84.2910,61.55,1111122 
COMPS,ioos:station:USF.COMPS:SHP:1,2015-07-01T17:06:00Z,30.0600,-84.2910,59.43,1111122 
COMPS,ioos:station:USF.COMPS:SHP:1,2015-07-01T17:12:00Z,30.0600,-84.2910,60.13,1111122 
COMPS,ioos:station:USF.COMPS:SHP:1,2015-07-01T17:18:00Z,30.0600,-84.2910,60.5,1111122 
COMPS,ioos:station:USF.COMPS:SHP:1,2015-07-01T17:24:00Z,30.0600,-84.2910,59.68,1111122 
COMPS,ioos:station:USF.COMPS:SHP:1,2015-07-01T17:30:00Z,30.0600,-84.2910,59.19,1111122 
COMPS,ioos:station:USF.COMPS:SHP:1,2015-07-01T17:36:00Z,30.0600,-84.2910,58.35,1111122 
COMPS,ioos:station:USF.COMPS:SHP:1,2015-07-01T17:42:00Z,30.0600,-84.2910,57.16,1111122 
COMPS,ioos:station:USF.COMPS:SHP:1,2015-07-01T17:48:00Z,30.0600,-84.2910,56.89,1111122 
COMPS,ioos:station:USF.COMPS:SHP:1,2015-07-01T17:54:00Z,30.0600,-84.2910,56.94,1111122 
COMPS,ioos:station:USF.COMPS:SHP:1,2015-07-01T18:00:00Z,30.0600,-84.2910,57.48,1111122 
COMPS,ioos:station:USF.COMPS:SHP:1,2015-07-01T18:06:00Z,30.0600,-84.2910,58.88,1111122 
COMPS,ioos:station:USF.COMPS:SHP:1,2015-07-01T18:12:00Z,30.0600,-84.2910,69.61,1111122 
COMPS,ioos:station:USF.COMPS:SHP:1,2015-07-01T18:18:00Z,30.0600,-84.2910,72.14,1111122 
COMPS,ioos:station:USF.COMPS:SHP:1,2015-07-01T18:24:00Z,30.0600,-84.2910,72.64,1111122 
COMPS,ioos:station:USF.COMPS:SHP:1,2015-07-01T18:30:00Z,30.0600,-84.2910,70.82,1111122 
COMPS,ioos:station:USF.COMPS:SHP:1,2015-07-01T18:36:00Z,30.0600,-84.2910,67.5,1111122 
COMPS,ioos:station:USF.COMPS:SHP:1,2015-07-01T18:42:00Z,30.0600,-84.2910,69.87,1111122 
COMPS,ioos:station:USF.COMPS:SHP:1,2015-07-01T18:48:00Z,30.0600,-84.2910,69.3,1111122 
COMPS,ioos:station:USF.COMPS:SHP:1,2015-07-01T18:54:00Z,30.0600,-84.2910,67.98,1111122 
COMPS,ioos:station:USF.COMPS:SHP:1,2015-07-01T19:00:00Z,30.0600,-84.2910,70.26,1111122 
COMPS,ioos:station:USF.COMPS:SHP:1,2015-07-01T19:06:00Z,30.0600,-84.2910,69.62,1111122 
COMPS,ioos:station:USF.COMPS:SHP:1,2015-07-01T19:12:00Z,30.0600,-84.2910,70.0,1111122 
COMPS,ioos:station:USF.COMPS:SHP:1,2015-07-01T19:18:00Z,30.0600,-84.2910,69.53,1111122 
COMPS,ioos:station:USF.COMPS:SHP:1,2015-07-01T19:24:00Z,30.0600,-84.2910,70.35,1111122 
COMPS,ioos:station:USF.COMPS:SHP:1,2015-07-01T19:30:00Z,30.0600,-84.2910,72.49,1111122 
COMPS,ioos:station:USF.COMPS:SHP:1,2015-07-01T19:36:00Z,30.0600,-84.2910,70.82,1111122 
COMPS,ioos:station:USF.COMPS:SHP:1,2015-07-01T19:42:00Z,30.0600,-84.2910,69.88,1111122 
COMPS,ioos:station:USF.COMPS:SHP:1,2015-07-01T19:48:00Z,30.0600,-84.2910,74.73,1111122 
COMPS,ioos:station:USF.COMPS:SHP:1,2015-07-01T19:54:00Z,30.0600,-84.2910,74.89,1111122 
COMPS,ioos:station:USF.COMPS:SHP:1,2015-07-01T20:00:00Z,30.0600,-84.2910,72.86,1111122 
COMPS,ioos:station:USF.COMPS:SHP:1,2015-07-01T20:06:00Z,30.0600,-84.2910,73.37,1111122 
COMPS,ioos:station:USF.COMPS:SHP:1,2015-07-01T20:12:00Z,30.0600,-84.2910,76.61,1111122 
COMPS,ioos:station:USF.COMPS:SHP:1,2015-07-01T20:18:00Z,30.0600,-84.2910,76.09,1111122 
COMPS,ioos:station:USF.COMPS:SHP:1,2015-07-01T20:24:00Z,30.0600,-84.2910,74.43,1111122 
COMPS,ioos:station:USF.COMPS:SHP:1,2015-07-01T20:30:00Z,30.0600,-84.2910,74.61,1111122 
COMPS,ioos:station:USF.COMPS:SHP:1,2015-07-01T20:36:00Z,30.0600,-84.2910,76.43,1111122 
COMPS,ioos:station:USF.COMPS:SHP:1,2015-07-01T20:42:00Z,30.0600,-84.2910,75.95,1111122 
COMPS,ioos:station:USF.COMPS:SHP:1,2015-07-01T20:48:00Z,30.0600,-84.2910,76.82,1111122 
COMPS,ioos:station:USF.COMPS:SHP:1,2015-07-01T20:54:00Z,30.0600,-84.2910,79.84,1111122 
COMPS,ioos:station:USF.COMPS:SHP:1,2015-07-01T21:00:00Z,30.0600,-84.2910,75.13,1111122 
COMPS,ioos:station:USF.COMPS:SHP:1,2015-07-01T21:06:00Z,30.0600,-84.2910,77.5,1111122 
COMPS,ioos:station:USF.COMPS:SHP:1,2015-07-01T21:12:00Z,30.0600,-84.2910,77.38,1111122 
COMPS,ioos:station:USF.COMPS:SHP:1,2015-07-01T21:18:00Z,30.0600,-84.2910,77.52,1111122 
COMPS,ioos:station:USF.COMPS:SHP:1,2015-07-01T21:24:00Z,30.0600,-84.2910,76.25,1111122 
COMPS,ioos:station:USF.COMPS:SHP:1,2015-07-01T21:30:00Z,30.0600,-84.2910,74.86,1111122 
COMPS,ioos:station:USF.COMPS:SHP:1,2015-07-01T21:36:00Z,30.0600,-84.2910,75.83,1111122 
COMPS,ioos:station:USF.COMPS:SHP:1,2015-07-01T21:42:00Z,30.0600,-84.2910,71.55,1111122 
COMPS,ioos:station:USF.COMPS:SHP:1,2015-07-01T21:48:00Z,30.0600,-84.2910,72.79,1111122 
COMPS,ioos:station:USF.COMPS:SHP:1,2015-07-01T21:54:00Z,30.0600,-84.2910,73.81,1111122 
COMPS,ioos:station:USF.COMPS:SHP:1,2015-07-01T22:00:00Z,30.0600,-84.2910,76.33,1111122 
COMPS,ioos:station:USF.COMPS:SHP:1,2015-07-01T22:06:00Z,30.0600,-84.2910,79.19,1111122 
COMPS,ioos:station:USF.COMPS:SHP:1,2015-07-01T22:12:00Z,30.0600,-84.2910,73.38,1111122 
COMPS,ioos:station:USF.COMPS:SHP:1,2015-07-01T22:18:00Z,30.0600,-84.2910,72.32,1111122 
COMPS,ioos:station:USF.COMPS:SHP:1,2015-07-01T22:24:00Z,30.0600,-84.2910,72.92,1111122 
COMPS,ioos:station:USF.COMPS:SHP:1,2015-07-01T22:30:00Z,30.0600,-84.2910,74.2,1111122 
COMPS,ioos:station:USF.COMPS:SHP:1,2015-07-01T22:36:00Z,30.0600,-84.2910,77.25,1111122 
COMPS,ioos:station:USF.COMPS:SHP:1,2015-07-01T22:42:00Z,30.0600,-84.2910,78.37,1111122 
COMPS,ioos:station:USF.COMPS:SHP:1,2015-07-01T22:48:00Z,30.0600,-84.2910,78.93,1111122 
COMPS,ioos:station:USF.COMPS:SHP:1,2015-07-01T22:54:00Z,30.0600,-84.2910,78.42,1111122 
COMPS,ioos:station:USF.COMPS:SHP:1,2015-07-01T23:00:00Z,30.0600,-84.2910,77.56,1111122 
COMPS,ioos:station:USF.COMPS:SHP:1,2015-07-01T23:06:00Z,30.0600,-84.2910,77.16,1111122 
COMPS,ioos:station:USF.COMPS:SHP:1,2015-07-01T23:12:00Z,30.0600,-84.2910,77.14,1111122 
COMPS,ioos:station:USF.COMPS:SHP:1,2015-07-01T23:18:00Z,30.0600,-84.2910,76.25,1111122 
COMPS,ioos:station:USF.COMPS:SHP:1,2015-07-01T23:24:00Z,30.0600,-84.2910,77.13,1111122 
COMPS,ioos:station:USF.COMPS:SHP:1,2015-07-01T23:30:00Z,30.0600,-84.2910,76.14,1111122 
COMPS,ioos:station:USF.COMPS:SHP:1,2015-07-01T23:36:00Z,30.0600,-84.2910,75.28,1111122 
COMPS,ioos:station:USF.COMPS:SHP:1,2015-07-01T23:42:00Z,30.0600,-84.2910,74.97,1111122 
COMPS,ioos:station:USF.COMPS:SHP:1,2015-07-01T23:48:00Z,30.0600,-84.2910,75.45,1111122 
COMPS,ioos:station:USF.COMPS:SHP:1,2015-07-01T23:54:00Z,30.0600,-84.2910,73.79,1111122 
COMPS,ioos:station:USF.COMPS:SHP:1,2015-07-02T00:00:00Z,30.0600,-84.2910,73.73,1111122 
COMPS,ioos:station:USF.COMPS:SHP:1,2015-07-02T00:06:00Z,30.0600,-84.2910,71.89,1111122 
COMPS,ioos:station:USF.COMPS:SHP:1,2015-07-02T00:12:00Z,30.0600,-84.2910,70.11,1111122 
COMPS,ioos:station:USF.COMPS:SHP:1,2015-07-02T00:18:00Z,30.0600,-84.2910,68.01,1111122 
COMPS,ioos:station:USF.COMPS:SHP:1,2015-07-02T00:24:00Z,30.0600,-84.2910,66.32,1111122 
COMPS,ioos:station:USF.COMPS:SHP:1,2015-07-02T00:30:00Z,30.0600,-84.2910,64.67,1111122 
COMPS,ioos:station:USF.COMPS:SHP:1,2015-07-02T00:36:00Z,30.0600,-84.2910,65.23,1111122 
COMPS,ioos:station:USF.COMPS:SHP:1,2015-07-02T00:42:00Z,30.0600,-84.2910,64.48,1111122 
COMPS,ioos:station:USF.COMPS:SHP:1,2015-07-02T00:48:00Z,30.0600,-84.2910,65.78,1111122 
COMPS,ioos:station:USF.COMPS:SHP:1,2015-07-02T00:54:00Z,30.0600,-84.2910,67.1,1111122 
COMPS,ioos:station:USF.COMPS:SHP:1,2015-07-02T01:00:00Z,30.0600,-84.2910,66.56,1111122 
COMPS,ioos:station:USF.COMPS:SHP:1,2015-07-02T01:06:00Z,30.0600,-84.2910,68.3,1111122 
COMPS,ioos:station:USF.COMPS:SHP:1,2015-07-02T01:12:00Z,30.0600,-84.2910,70.17,1111122 
COMPS,ioos:station:USF.COMPS:SHP:1,2015-07-02T01:18:00Z,30.0600,-84.2910,71.83,1111122 
COMPS,ioos:station:USF.COMPS:SHP:1,2015-07-02T01:24:00Z,30.0600,-84.2910,72.44,1111122 
COMPS,ioos:station:USF.COMPS:SHP:1,2015-07-02T01:30:00Z,30.0600,-84.2910,66.91,1111122 
COMPS,ioos:station:USF.COMPS:SHP:1,2015-07-02T01:36:00Z,30.0600,-84.2910,65.1,1111122 
COMPS,ioos:station:USF.COMPS:SHP:1,2015-07-02T01:42:00Z,30.0600,-84.2910,65.02,1111122 
COMPS,ioos:station:USF.COMPS:SHP:1,2015-07-02T01:48:00Z,30.0600,-84.2910,67.33,1111122 
COMPS,ioos:station:USF.COMPS:SHP:1,2015-07-02T01:54:00Z,30.0600,-84.2910,66.42,1111122 
COMPS,ioos:station:USF.COMPS:SHP:1,2015-07-02T02:00:00Z,30.0600,-84.2910,66.59,1111122 
COMPS,ioos:station:USF.COMPS:SHP:1,2015-07-02T02:06:00Z,30.0600,-84.2910,67.29,1111122 
COMPS,ioos:station:USF.COMPS:SHP:1,2015-07-02T02:12:00Z,30.0600,-84.2910,69.33,1111122 
COMPS,ioos:station:USF.COMPS:SHP:1,2015-07-02T02:18:00Z,30.0600,-84.2910,69.26,1111122 
COMPS,ioos:station:USF.COMPS:SHP:1,2015-07-02T02:24:00Z,30.0600,-84.2910,72.12,1111122 
COMPS,ioos:station:USF.COMPS:SHP:1,2015-07-02T02:30:00Z,30.0600,-84.2910,72.03,1111122 
COMPS,ioos:station:USF.COMPS:SHP:1,2015-07-02T02:36:00Z,30.0600,-84.2910,71.79,1111122 
COMPS,ioos:station:USF.COMPS:SHP:1,2015-07-02T02:42:00Z,30.0600,-84.2910,73.52,1111122 
COMPS,ioos:station:USF.COMPS:SHP:1,2015-07-02T02:48:00Z,30.0600,-84.2910,72.95,1111122 
COMPS,ioos:station:USF.COMPS:SHP:1,2015-07-02T02:54:00Z,30.0600,-84.2910,73.03,1111122 
COMPS,ioos:station:USF.COMPS:SHP:1,2015-07-02T03:00:00Z,30.0600,-84.2910,73.66,1111122 
COMPS,ioos:station:USF.COMPS:SHP:1,2015-07-02T03:06:00Z,30.0600,-84.2910,73.34,1111122 
COMPS,ioos:station:USF.COMPS:SHP:1,2015-07-02T03:12:00Z,30.0600,-84.2910,73.11,1111122 
COMPS,ioos:station:USF.COMPS:SHP:1,2015-07-02T03:18:00Z,30.0600,-84.2910,73.21,1111122 
COMPS,ioos:station:USF.COMPS:SHP:1,2015-07-02T03:24:00Z,30.0600,-84.2910,73.3,1111122 
COMPS,ioos:station:USF.COMPS:SHP:1,2015-07-02T03:30:00Z,30.0600,-84.2910,73.52,1111122 
COMPS,ioos:station:USF.COMPS:SHP:1,2015-07-02T03:36:00Z,30.0600,-84.2910,73.32,1111122 
COMPS,ioos:station:USF.COMPS:SHP:1,2015-07-02T03:42:00Z,30.0600,-84.2910,73.57,1111122 
COMPS,ioos:station:USF.COMPS:SHP:1,2015-07-02T03:48:00Z,30.0600,-84.2910,74.23,1111122 
COMPS,ioos:station:USF.COMPS:SHP:1,2015-07-02T03:54:00Z,30.0600,-84.2910,75.49,1111122 
COMPS,ioos:station:USF.COMPS:SHP:1,2015-07-02T04:00:00Z,30.0600,-84.2910,75.37,1111122 
COMPS,ioos:station:USF.COMPS:SHP:1,2015-07-02T04:06:00Z,30.0600,-84.2910,74.97,1111122 
COMPS,ioos:station:USF.COMPS:SHP:1,2015-07-02T04:12:00Z,30.0600,-84.2910,75.58,1111122 
COMPS,ioos:station:USF.COMPS:SHP:1,2015-07-02T04:18:00Z,30.0600,-84.2910,76.44,1111122 
COMPS,ioos:station:USF.COMPS:SHP:1,2015-07-02T04:24:00Z,30.0600,-84.2910,76.5,1111122 
COMPS,ioos:station:USF.COMPS:SHP:1,2015-07-02T04:30:00Z,30.0600,-84.2910,76.65,1111122 
COMPS,ioos:station:USF.COMPS:SHP:1,2015-07-02T04:36:00Z,30.0600,-84.2910,77.57,1111122 
COMPS,ioos:station:USF.COMPS:SHP:1,2015-07-02T04:42:00Z,30.0600,-84.2910,77.5,1111122 
COMPS,ioos:station:USF.COMPS:SHP:1,2015-07-02T04:48:00Z,30.0600,-84.2910,77.55,1111122 
COMPS,ioos:station:USF.COMPS:SHP:1,2015-07-02T04:54:00Z,30.0600,-84.2910,77.65,1111122 
COMPS,ioos:station:USF.COMPS:SHP:1,2015-07-02T05:00:00Z,30.0600,-84.2910,77.91,1111122 
COMPS,ioos:station:USF.COMPS:SHP:1,2015-07-02T05:06:00Z,30.0600,-84.2910,77.56,1111122 
COMPS,ioos:station:USF.COMPS:SHP:1,2015-07-02T05:12:00Z,30.0600,-84.2910,78.03,1111122 
COMPS,ioos:station:USF.COMPS:SHP:1,2015-07-02T05:18:00Z,30.0600,-84.2910,79.17,1111122 
COMPS,ioos:station:USF.COMPS:SHP:1,2015-07-02T05:24:00Z,30.0600,-84.2910,79.21,1111122 
COMPS,ioos:station:USF.COMPS:SHP:1,2015-07-02T05:30:00Z,30.0600,-84.2910,79.58,1111122 
COMPS,ioos:station:USF.COMPS:SHP:1,2015-07-02T05:36:00Z,30.0600,-84.2910,80.24,1111122 
COMPS,ioos:station:USF.COMPS:SHP:1,2015-07-02T05:42:00Z,30.0600,-84.2910,80.49,1111122 
COMPS,ioos:station:USF.COMPS:SHP:1,2015-07-02T05:48:00Z,30.0600,-84.2910,81.14,1111122 
COMPS,ioos:station:USF.COMPS:SHP:1,2015-07-02T05:54:00Z,30.0600,-84.2910,81.06,1111122 
COMPS,ioos:station:USF.COMPS:SHP:1,2015-07-02T06:00:00Z,30.0600,-84.2910,81.1,1111122 
COMPS,ioos:station:USF.COMPS:SHP:1,2015-07-02T06:06:00Z,30.0600,-84.2910,81.31,1111122 